Location: PACMO
(41.3967°N, 90.3760°W)
Time: 10:11:41
(UTC-06:00)

Amateur Radio Satellites - All Passes

Search period start: 04 December 2016 09:41
Search period end: 05 December 2016 09:41
Location: PACMO, 41.3967°N, 90.3760°W

Satellite Date Start Highest point End Downlink Frequencies (MHz)
Time Altitude Azimuth
QB50P1 04 Dec 09:42:08 09:44:37 15° 64° (ENE) 09:47:06 145.935-145.965
AAUSAT CUBESAT 2 04 Dec 09:44:21 09:46:59 17° 294° (WNW) 09:49:36 437.432
UWE-3 04 Dec 09:45:15 09:48:41 23° 293° (WNW) 09:52:01 435.000/436.395/437.385
DUCHIFAT 1 04 Dec 09:47:25 09:49:50 15° 64° (ENE) 09:52:14 145.980
DANDE 04 Dec 09:53:10 09:57:40 33° 97° (E) 10:01:09 436.750
UNISAT 6 04 Dec 09:53:27 09:57:59 47° 261° (W) 10:02:30 437.425
POPSAT HIP 1 04 Dec 10:02:18 10:05:45 24° 68° (ENE) 10:09:13 437.405
RS-15 04 Dec 10:25:00 10:35:37 34° 329° (NNW) 10:46:34 29.354- 29.394
TIGRISAT 04 Dec 10:25:00 10:28:50 25° 265° (W) 10:32:40 435.000
ANTELSAT 04 Dec 10:26:04 10:29:46 23° 266° (W) 10:33:29 437.575/2403.000
Cosmos 2499 04 Dec 10:32:08 10:39:06 26° 65° (ENE) 10:45:40 435.465 / 435.565
ZACube-1 04 Dec 10:32:27 10:34:14 12° 298° (WNW) 10:35:59 437.345
CUBEBUG 1 04 Dec 10:34:16 10:35:10 11° 89° (E) 10:36:04 437.445
JAS-2 04 Dec 10:38:27 10:45:09 89° 61° (ENE) 10:51:02 435.910
HUMSAT D 04 Dec 10:40:42 10:44:39 48° 287° (WNW) 10:48:34 437.325/437.525
FUNcube-1 04 Dec 10:42:05 10:43:04 11° 299° (WNW) 10:44:04 145.935
BUGSAT 1 04 Dec 10:51:21 10:54:57 28° 69° (ENE) 10:58:34 437.445
NANOSAT C BR1 04 Dec 10:57:28 11:01:44 88° 251° (WSW) 11:06:03 145.865
DELFI C3 04 Dec 11:01:05 11:03:27 15° 294° (WNW) 11:05:49 145.870
QB50P2 04 Dec 11:01:20 11:05:37 69° 259° (W) 11:09:54 145.880/145.840
POLYITAN 1 04 Dec 11:01:55 11:06:12 72° 258° (WSW) 11:10:30 437.675
AO-85 04 Dec 11:10:47 11:14:47 74° 57° (ENE) 11:18:38 145.980
QB50P1 04 Dec 11:15:48 11:19:57 50° 260° (W) 11:24:08 145.935-145.965
DUCHIFAT 1 04 Dec 11:20:56 11:25:04 51° 260° (W) 11:29:15 145.980
ESTCUBE 1 04 Dec 11:20:56 11:25:24 59° 101° (E) 11:29:51 437.505/2401.250
50 SAT 04 Dec 11:24:36 11:27:08 18° 94° (E) 11:29:41 437.505
SPROUT 04 Dec 11:26:11 11:29:04 17° 93° (E) 11:31:57 437.525
GONETS M04 04 Dec 11:26:49 11:35:16 51° 76° (ENE) 11:43:42
Gurwin Techsat 1B 04 Dec 11:29:58 11:31:29 11° 57° (ENE) 11:33:00 435.225
AISAT 04 Dec 11:36:14 11:40:23 36° 98° (E) 11:44:30 437.250
DANDE 04 Dec 11:37:03 11:40:15 18° 284° (WNW) 11:42:56 436.750
POPSAT HIP 1 04 Dec 11:37:37 11:41:23 30° 264° (W) 11:45:10 437.405
PCSat 04 Dec 11:42:52 11:48:13 67° 116° (ESE) 11:53:37 145.827
Oscar 19 04 Dec 11:46:29 11:50:50 29° 67° (ENE) 11:55:14 437.125/150
CUBEBUG 1 04 Dec 12:07:28 12:11:54 71° 286° (WNW) 12:16:19 437.445
AO-7 04 Dec 12:07:38 12:09:51 11° 41° (NE) 12:12:03 29.400- 29.500
VELOX 1 04 Dec 12:13:04 12:17:33 87° 105° (ESE) 12:22:01 145.980
Cosmos 2499 04 Dec 12:24:26 12:33:03 70° 267° (W) 12:41:01 435.465 / 435.565
BUGSAT 1 04 Dec 12:26:45 12:30:15 25° 265° (W) 12:33:47 437.445
JAS-2 04 Dec 12:27:47 12:30:42 13° 269° (W) 12:33:30 435.910
DX 1 04 Dec 12:32:59 12:37:23 77° 102° (ESE) 12:41:46 434.975-435.025
UKube-1 04 Dec 12:44:01 12:48:23 75° 103° (ESE) 12:52:42 .
RS-15 04 Dec 12:44:10 12:53:24 23° 4° (N) 13:02:42 29.354- 29.394
TISAT 1 04 Dec 12:54:31 12:58:06 26° 96° (E) 13:01:38 437.305
50 SAT 04 Dec 12:57:27 13:00:26 26° 290° (WNW) 13:03:25 437.505
ESTCUBE 1 04 Dec 12:59:14 13:01:42 15° 297° (WNW) 13:04:11 437.505/2401.250
SPROUT 04 Dec 13:01:07 13:05:10 40° 289° (WNW) 13:09:09 437.525
Gurwin Techsat 1B 04 Dec 13:05:14 13:10:32 80° 75° (ENE) 13:15:53 435.225
AISAT 04 Dec 13:13:11 13:16:36 22° 294° (WNW) 13:20:01 437.250
GONETS M04 04 Dec 13:24:10 13:31:44 35° 275° (W) 13:39:20
Oscar 19 04 Dec 13:25:26 13:30:03 34° 263° (W) 13:34:43 437.125/150
PCSat 04 Dec 13:28:04 13:32:08 21° 315° (NW) 13:36:12 145.827
BEESAT 3 04 Dec 13:28:58 13:32:28 29° 49° (NE) 13:35:58 437.485
SWISSCUBE 04 Dec 13:29:37 13:32:11 14° 91° (E) 13:34:45 437.505
BEESAT 04 Dec 13:33:54 13:36:27 14° 91° (E) 13:38:57 436.000
ITAMSAT 1 04 Dec 13:49:02 13:54:03 48° 70° (ENE) 13:59:03 435.822/435.867
AO-7 04 Dec 13:52:45 14:00:35 49° 63° (ENE) 14:08:28 29.400- 29.500
VELOX 1 04 Dec 13:53:05 13:53:17 10° 300° (WNW) 13:53:30 145.980
BEESAT 2 04 Dec 13:54:01 13:57:27 26° 48° (NE) 14:00:50 435.950
ITUPSAT 1 04 Dec 13:59:08 14:03:05 25° 95° (E) 14:07:01 437.325
DX 1 04 Dec 14:11:40 14:12:56 11° 299° (WNW) 14:14:13 434.975-435.025
AUBIESAT-1 04 Dec 14:18:33 14:22:46 35° 101° (ESE) 14:26:50 437.475
Cosmos 2499 04 Dec 14:21:23 14:24:20 12° 288° (WNW) 14:27:13 435.465 / 435.565
UKube-1 04 Dec 14:22:33 14:23:47 11° 299° (WNW) 14:25:01 .
M-CUBED/EXP-1 PRIME 04 Dec 14:28:54 14:33:32 56° 105° (ESE) 14:37:59 437.505
TISAT 1 04 Dec 14:30:07 14:33:40 26° 292° (WNW) 14:37:10 437.305
Gurwin Techsat 1B 04 Dec 14:48:54 14:51:05 12° 271° (W) 14:53:17 435.225
MOZHAYETS 4 04 Dec 14:55:25 14:59:08 24° 94° (E) 15:02:48
RS-15 04 Dec 14:59:14 15:10:43 41° 37° (NE) 15:21:56 29.354- 29.394
SWISSCUBE 04 Dec 15:05:40 15:10:21 59° 287° (WNW) 15:14:59 437.505
BEESAT 3 04 Dec 15:06:41 15:10:01 26° 246° (WSW) 15:13:20 437.485
BEESAT 04 Dec 15:09:54 15:14:36 60° 287° (WNW) 15:19:15 436.000
ITAMSAT 1 04 Dec 15:29:52 15:33:44 21° 267° (W) 15:37:37 435.822/435.867
BEESAT 2 04 Dec 15:31:40 15:35:14 31° 245° (WSW) 15:38:48 435.950
ITUPSAT 1 04 Dec 15:36:40 15:40:57 34° 291° (WNW) 15:45:12 437.325
KKS-1 04 Dec 15:38:46 15:42:38 28° 96° (E) 15:46:29 437.445
NOAA 15 04 Dec 15:43:14 15:44:09 10° 56° (ENE) 15:45:02 137.62
AO-7 04 Dec 15:45:51 15:53:26 39° 261° (W) 16:01:07 29.400- 29.500
STARS 04 Dec 15:50:29 15:53:26 17° 93° (E) 15:56:22 437.465
ISS 04 Dec 15:51:01 15:53:15 17° 132° (SE) 15:55:29 145.825
HORYU 2 04 Dec 15:51:19 15:55:16 31° 69° (ENE) 15:59:12 437.375
AUBIESAT-1 04 Dec 15:53:10 15:56:58 26° 298° (WNW) 16:00:39 437.475
GOMX 1 04 Dec 16:00:06 16:03:21 19° 64° (ENE) 16:06:45 467.674
M-CUBED/EXP-1 PRIME 04 Dec 16:04:22 16:07:30 18° 302° (WNW) 16:10:36 437.505
AIST 2 04 Dec 16:05:26 16:08:30 19° 44° (NE) 16:11:33 435.215
O/OREOS (USA 219) 04 Dec 16:09:31 16:14:03 68° 110° (ESE) 16:18:35 437.305
BRITE-PL 04 Dec 16:14:01 16:18:11 60° 74° (ENE) 16:22:40 437.365/2234.400
DOVE 4 04 Dec 16:20:26 16:23:00 14° 60° (ENE) 16:25:37 437.250
CUBESAT XI-V 04 Dec 16:29:49 16:34:05 34° 97° (E) 16:38:19 437.345
MOZHAYETS 4 04 Dec 16:32:15 16:36:19 33° 291° (WNW) 16:40:22
NOAA 18 04 Dec 16:44:41 16:49:04 25° 63° (ENE) 16:53:29 137.9125
CUTE-I 04 Dec 16:49:36 16:54:32 38° 68° (ENE) 16:59:29 437.470
RS-15 04 Dec 17:12:03 17:24:22 75° 243° (WSW) 17:36:14 29.354- 29.394
Cubesat XI-IV 04 Dec 17:14:32 17:19:50 63° 72° (ENE) 17:25:10 437.490
KKS-1 04 Dec 17:15:19 17:19:07 28° 292° (WNW) 17:22:54 437.445
NOAA 15 04 Dec 17:17:47 17:23:00 76° 74° (ENE) 17:28:15 137.62
STARS 04 Dec 17:25:46 17:29:58 43° 289° (WNW) 17:34:08 437.465
ISS 04 Dec 17:26:13 17:29:28 55° 329° (NNW) 17:32:44 145.825
Cosmos 2491 04 Dec 17:26:42 17:34:56 44° 73° (ENE) 17:43:05 435.465 / 435.565
HORYU 2 04 Dec 17:28:05 17:31:47 25° 265° (W) 17:35:31 437.375
LilacSat-2 04 Dec 17:36:35 17:40:25 69° 259° (WSW) 17:44:16 437.200
GOMX 1 04 Dec 17:36:44 17:41:02 45° 262° (W) 17:45:40 467.674
AIST 2 04 Dec 17:43:09 17:47:16 52° 242° (WSW) 17:51:22 435.215
CINEMA 3 04 Dec 17:49:31 17:53:43 29° 68° (ENE) 17:57:59 145.822/145.860
O/OREOS (USA 219) 04 Dec 17:51:28 17:53:57 14° 308° (NW) 17:56:25 437.305
DOVE 4 04 Dec 17:55:16 17:59:58 71° 259° (W) 18:05:01 437.250
BRITE-PL 04 Dec 17:55:46 17:57:14 11° 272° (W) 17:58:43 437.365/2234.400
YUBILEINY 04 Dec 17:56:15 18:03:05 27° 81° (E) 18:09:57 435.215
HO-68 04 Dec 17:59:38 18:06:07 39° 63° (ENE) 18:12:38 435.675
CUBESAT XI-V 04 Dec 18:07:32 18:11:17 24° 293° (WNW) 18:15:01 437.345
Cosmos 2504 04 Dec 18:14:31 18:18:56 15° 75° (ENE) 18:23:29 435.465 / 435.565
CUBEBUG 2 04 Dec 18:20:27 18:23:17 16° 63° (ENE) 18:26:05 437.445
NOAA 18 04 Dec 18:24:06 18:29:25 48° 260° (W) 18:34:47 137.9125
CUTE 1.7 + AOD 2 04 Dec 18:26:16 18:30:07 35° 71° (ENE) 18:33:58 437.475
CUTE-I 04 Dec 18:30:06 18:34:38 28° 265° (W) 18:39:13 437.470
CANX-2 04 Dec 18:43:33 18:47:43 66° 75° (ENE) 18:51:54 2200.000
PCSat 04 Dec 18:49:45 18:51:21 11° 35° (NE) 18:52:56 145.827
Cubesat XI-IV 04 Dec 18:56:59 19:00:20 17° 269° (W) 19:03:42 437.490
Oscar 11 04 Dec 18:58:01 18:59:41 12° 62° (ENE) 19:01:20 145.826/435.025
AAUSAT CUBESAT 2 04 Dec 18:58:14 19:01:44 28° 70° (ENE) 19:05:15 437.432
NOAA 15 04 Dec 19:01:02 19:03:20 13° 270° (W) 19:05:39 137.62
ISS 04 Dec 19:04:15 19:06:30 17° 347° (NNW) 19:08:47 145.825
UWE-3 04 Dec 19:05:08 19:09:05 28° 69° (ENE) 19:13:00 435.000/436.395/437.385
SEEDS 04 Dec 19:12:27 19:16:37 81° 75° (ENE) 19:20:48 437.485
Cosmos 2491 04 Dec 19:23:44 19:31:40 41° 273° (W) 19:39:35 435.465 / 435.565
COMPASS 1 04 Dec 19:26:04 19:30:10 77° 78° (ENE) 19:34:18 437.405
CINEMA 3 04 Dec 19:26:16 19:30:41 33° 264° (W) 19:35:14 145.822/145.860
STRAND 1 04 Dec 19:26:28 19:31:36 77° 103° (ESE) 19:36:41 437.568
RS-15 04 Dec 19:27:36 19:34:34 18° 264° (W) 19:41:27 29.354- 29.394
AIST 1 04 Dec 19:29:31 19:33:33 41° 92° (E) 19:37:39
SO-50 04 Dec 19:41:35 19:45:44 30° 114° (ESE) 19:49:51 436.795
HO-68 04 Dec 19:47:03 19:53:44 42° 262° (W) 20:00:30 435.675
ZACube-1 04 Dec 19:49:26 19:53:49 49° 73° (ENE) 19:58:11 437.345
YUBILEINY 04 Dec 19:50:31 19:59:07 65° 281° (W) 20:07:51 435.215
CUBEBUG 2 04 Dec 19:54:42 19:59:24 60° 260° (W) 20:04:06 437.445
FUNcube-1 04 Dec 19:58:01 20:02:28 55° 74° (ENE) 20:06:53 145.935
CUSAT 1 04 Dec 19:58:47 20:02:04 35° 79° (E) 20:06:12 437.405
HUMSAT D 04 Dec 19:59:41 20:00:26 10° 62° (ENE) 20:01:13 437.325/437.525
Cosmos 2504 04 Dec 20:02:29 20:10:45 81° 95° (E) 20:19:34 435.465 / 435.565
CUTE 1.7 + AOD 2 04 Dec 20:03:02 20:06:03 19° 267° (W) 20:09:04 437.475
PRISM 04 Dec 20:07:10 20:08:57 12° 91° (E) 20:10:43 437.425
DELFI C3 04 Dec 20:11:11 20:14:22 24° 69° (ENE) 20:17:33 145.870
CANX-2 04 Dec 20:23:27 20:23:59 10° 271° (W) 20:24:32 2200.000
PCSat 04 Dec 20:30:40 20:36:01 54° 56° (ENE) 20:41:18 145.827
DANDE 04 Dec 20:30:42 20:32:04 13° 75° (ENE) 20:33:33 436.750
Oscar 11 04 Dec 20:30:57 20:35:14 67° 258° (WSW) 20:39:33 145.826/435.025
AAUSAT CUBESAT 2 04 Dec 20:33:53 20:37:10 23° 265° (W) 20:40:28 437.432
UWE-3 04 Dec 20:41:20 20:45:25 30° 264° (W) 20:49:32 435.000/436.395/437.385
ISS 04 Dec 20:41:59 20:44:00 15° 8° (N) 20:46:01 145.825
STRAND 1 04 Dec 21:07:32 21:10:07 14° 300° (WNW) 21:12:41 437.568
AIST 1 04 Dec 21:08:36 21:11:22 16° 290° (WNW) 21:14:09
SO-50 04 Dec 21:21:46 21:26:08 35° 311° (NW) 21:30:27 436.795
ZACube-1 04 Dec 21:27:28 21:30:20 16° 268° (W) 21:33:11 437.345
HUMSAT D 04 Dec 21:31:13 21:35:27 74° 258° (WSW) 21:39:39 437.325/437.525
FUNcube-1 04 Dec 21:36:34 21:39:00 14° 269° (W) 21:41:25 145.935
PRISM 04 Dec 21:40:29 21:44:33 54° 287° (WNW) 21:48:36 437.425
CUSAT 1 04 Dec 21:41:45 21:43:52 14° 266° (W) 21:46:14 437.405
UNISAT 6 04 Dec 21:45:18 21:49:21 35° 97° (E) 21:53:18 437.425
DELFI C3 04 Dec 21:45:53 21:49:06 24° 265° (W) 21:52:20 145.870
YUBILEINY 04 Dec 21:54:24 21:57:55 13° 304° (NW) 22:01:27 435.215
Cosmos 2504 04 Dec 21:58:55 22:05:14 23° 297° (WNW) 22:11:49 435.465 / 435.565
DANDE 04 Dec 22:12:39 22:14:40 17° 264° (W) 22:16:53 436.750
PCSat 04 Dec 22:14:58 22:18:59 21° 254° (WSW) 22:22:58 145.827
TIGRISAT 04 Dec 22:15:33 22:19:59 71° 102° (ESE) 22:24:15 435.000
ANTELSAT 04 Dec 22:16:36 22:21:02 78° 102° (ESE) 22:25:21 437.575/2403.000
ISS 04 Dec 22:18:07 22:21:13 36° 27° (NNE) 22:24:19 145.825
ESTCUBE 1 04 Dec 22:20:17 22:24:37 53° 73° (ENE) 22:28:59 437.505/2401.250
SPROUT 04 Dec 22:20:22 22:22:44 15° 64° (ENE) 22:25:07 437.525
AISAT 04 Dec 22:33:31 22:37:28 33° 69° (ENE) 22:41:26 437.250
NANOSAT C BR1 04 Dec 22:43:10 22:45:32 15° 91° (E) 22:47:54 145.865
QB50P2 04 Dec 22:47:01 22:50:03 19° 93° (E) 22:53:03 145.880/145.840
POLYITAN 1 04 Dec 22:47:42 22:50:36 18° 93° (E) 22:53:30 437.675
QB50P1 04 Dec 23:00:45 23:04:16 25° 95° (E) 23:07:44 145.935-145.965
CUBEBUG 1 04 Dec 23:03:01 23:07:22 86° 256° (WSW) 23:11:47 437.445
DUCHIFAT 1 04 Dec 23:05:18 23:08:43 24° 95° (E) 23:12:06 145.980
Cosmos 2499 04 Dec 23:09:49 23:15:34 20° 78° (ENE) 23:21:26 435.465 / 435.565
VELOX 1 04 Dec 23:10:00 23:14:23 77° 76° (ENE) 23:18:50 145.980
POPSAT HIP 1 04 Dec 23:21:44 23:25:47 41° 99° (E) 23:29:46 437.405
UNISAT 6 04 Dec 23:22:29 23:25:50 22° 294° (WNW) 23:29:08 437.425
DX 1 04 Dec 23:28:12 23:32:30 66° 74° (ENE) 23:36:50 434.975-435.025
50 SAT 04 Dec 23:31:58 23:35:26 64° 259° (WSW) 23:38:56 437.505
JAS-2 04 Dec 23:32:20 23:37:32 76° 103° (ESE) 23:42:57 435.910
UKube-1 04 Dec 23:38:13 23:42:28 63° 73° (ENE) 23:46:45 .
TISAT 1 04 Dec 23:46:25 23:49:36 21° 66° (ENE) 23:52:47 437.305
SPROUT 04 Dec 23:54:00 23:58:12 53° 260° (W) 00:02:27 437.525
TIGRISAT 04 Dec 23:54:30 23:56:01 12° 299° (WNW) 23:57:31 435.000
ISS 04 Dec 23:54:44 23:57:39 29° 225° (SW) 00:00:34 145.825
ANTELSAT 04 Dec 23:56:03 23:57:03 11° 300° (WNW) 23:58:04 437.575/2403.000
ESTCUBE 1 04 Dec 23:59:19 00:01:44 14° 269° (W) 00:04:10 437.505/2401.250
BUGSAT 1 05 Dec 00:07:40 00:11:43 45° 99° (E) 00:15:41 437.445
AISAT 05 Dec 00:10:26 00:13:57 23° 265° (W) 00:17:30 437.250
NANOSAT C BR1 05 Dec 00:17:27 00:21:31 46° 288° (WNW) 00:25:33 145.865
QB50P2 05 Dec 00:22:03 00:25:58 36° 289° (WNW) 00:29:50 145.880/145.840
POLYITAN 1 05 Dec 00:22:36 00:26:33 38° 289° (WNW) 00:30:26 437.675
GONETS M04 05 Dec 00:27:38 00:36:06 59° 91° (E) 00:44:34
SWISSCUBE 05 Dec 00:36:03 00:39:16 18° 63° (ENE) 00:42:29 437.505
QB50P1 05 Dec 00:36:22 00:39:59 28° 291° (WNW) 00:43:35 145.935-145.965
BEESAT 05 Dec 00:40:16 00:43:27 18° 63° (ENE) 00:46:40 436.000
DUCHIFAT 1 05 Dec 00:40:44 00:44:23 29° 291° (WNW) 00:47:59 145.980
O/OREOS (USA 219) 05 Dec 00:41:35 00:44:09 15° 53° (NE) 00:46:43 437.305
POPSAT HIP 1 05 Dec 00:58:24 01:01:13 18° 295° (WNW) 01:04:01 437.405
Cosmos 2499 05 Dec 00:58:56 01:07:27 85° 276° (W) 01:16:25 435.465 / 435.565
PHONESAT 2.4 05 Dec 01:01:14 01:03:32 26° 159° (SSE) 01:05:50 2401.200-2431.200
AUBIESAT-1 05 Dec 01:03:50 01:07:41 40° 66° (ENE) 01:11:49 437.475
ITUPSAT 1 05 Dec 01:05:51 01:10:00 31° 68° (ENE) 01:14:11 437.325
DX 1 05 Dec 01:07:52 01:09:07 11° 270° (W) 01:10:21 434.975-435.025
M-CUBED/EXP-1 PRIME 05 Dec 01:14:42 01:18:43 66° 69° (ENE) 01:23:05 437.505
UKube-1 05 Dec 01:17:29 01:18:54 11° 270° (W) 01:20:19 .
JAS-2 05 Dec 01:19:35 01:22:03 14° 300° (WNW) 01:24:32 435.910
TISAT 1 05 Dec 01:21:07 01:25:00 34° 263° (W) 01:28:54 437.305
Gurwin Techsat 1B 05 Dec 01:21:44 01:26:27 31° 96° (E) 01:31:07 435.225
AO-85 05 Dec 01:24:58 01:29:04 26° 114° (ESE) 01:32:58 145.980
Oscar 19 05 Dec 01:36:05 01:41:18 83° 101° (ESE) 01:46:31 437.125/150
BUGSAT 1 05 Dec 01:44:06 01:46:41 16° 296° (WNW) 01:49:15 437.445
AO-7 05 Dec 01:57:03 02:00:29 13° 87° (E) 02:03:54 29.400- 29.500
MOZHAYETS 4 05 Dec 01:57:27 02:01:07 24° 67° (ENE) 02:04:47
ITAMSAT 1 05 Dec 02:02:58 02:06:12 17° 91° (E) 02:09:25 435.822/435.867
SWISSCUBE 05 Dec 02:12:01 02:16:39 51° 260° (W) 02:21:19 437.505
BEESAT 05 Dec 02:16:11 02:20:50 51° 260° (W) 02:25:30 436.000
O/OREOS (USA 219) 05 Dec 02:19:34 02:24:00 62° 251° (WSW) 02:28:23 437.305
GONETS M04 05 Dec 02:25:54 02:33:22 31° 291° (WNW) 02:40:53
PHONESAT 2.4 05 Dec 02:35:56 02:38:35 69° 173° (S) 02:41:14 2401.200-2431.200
KKS-1 05 Dec 02:36:52 02:40:37 27° 68° (ENE) 02:44:23 437.445
AUBIESAT-1 05 Dec 02:39:28 02:42:19 18° 264° (W) 02:45:17 437.475
ITUPSAT 1 05 Dec 02:43:40 02:47:47 28° 264° (W) 02:51:56 437.325
STARS 05 Dec 02:47:28 02:50:18 17° 64° (ENE) 02:53:08 437.465
M-CUBED/EXP-1 PRIME 05 Dec 02:52:42 02:53:44 11° 267° (W) 02:54:46 437.505
Cosmos 2499 05 Dec 02:56:15 03:02:00 19° 299° (WNW) 03:07:55 435.465 / 435.565
Gurwin Techsat 1B 05 Dec 03:01:38 03:06:22 34° 293° (WNW) 03:11:05 435.225
AO-85 05 Dec 03:04:47 03:09:23 39° 308° (NW) 03:13:39 145.980
Oscar 19 05 Dec 03:17:28 03:19:55 14° 301° (WNW) 03:22:22 437.125/150
CUBESAT XI-V 05 Dec 03:33:10 03:37:16 33° 70° (ENE) 03:41:24 437.345
MOZHAYETS 4 05 Dec 03:33:55 03:38:06 34° 263° (W) 03:42:16
ITAMSAT 1 05 Dec 03:40:58 03:46:04 60° 288° (WNW) 03:51:08 435.822/435.867
AO-7 05 Dec 03:46:12 03:54:36 72° 106° (ESE) 04:02:57 29.400- 29.500
YUBILEINY 05 Dec 04:06:45 04:10:24 13° 56° (NE) 04:14:02 435.215
PHONESAT 2.4 05 Dec 04:11:09 04:13:45 54° 191° (S) 04:16:21 2401.200-2431.200
SO-50 05 Dec 04:12:37 04:16:35 28° 47° (NE) 04:20:28 436.795
KKS-1 05 Dec 04:13:12 04:17:05 29° 264° (W) 04:21:00 437.445
BRITE-PL 05 Dec 04:18:02 04:22:23 24° 93° (E) 04:26:52 437.365/2234.400
STARS 05 Dec 04:21:58 04:26:14 48° 260° (W) 04:30:34 437.465
BEESAT 3 05 Dec 04:56:04 04:59:47 46° 118° (ESE) 05:03:35 437.485
STRAND 1 05 Dec 05:06:11 05:08:55 15° 60° (ENE) 05:11:39 437.568
CUTE-I 05 Dec 05:07:55 05:10:46 14° 90° (E) 05:13:36 437.470
CUBESAT XI-V 05 Dec 05:11:01 05:14:42 24° 266° (W) 05:18:24 437.345
LilacSat-2 05 Dec 05:11:35 05:13:09 12° 91° (E) 05:14:42 437.200
HORYU 2 05 Dec 05:17:52 05:22:16 59° 101° (E) 05:26:37 437.375
BEESAT 2 05 Dec 05:22:45 05:26:26 40° 117° (ESE) 05:30:11 435.950
RS-15 05 Dec 05:28:26 05:35:05 17° 96° (E) 05:41:52 29.354- 29.394
Cubesat XI-IV 05 Dec 05:32:19 05:36:39 25° 94° (E) 05:40:58 437.490
NOAA 15 05 Dec 05:33:15 05:37:45 28° 96° (E) 05:42:14 137.62
GOMX 1 05 Dec 05:37:27 05:42:51 57° 100° (E) 05:48:14 467.674
AIST 1 05 Dec 05:38:18 05:39:45 11° 68° (ENE) 05:41:13
AO-7 05 Dec 05:39:56 05:46:39 28° 305° (NW) 05:53:22 29.400- 29.500
PHONESAT 2.4 05 Dec 05:46:56 05:48:41 16° 207° (SSW) 05:50:25 2401.200-2431.200
SO-50 05 Dec 05:52:59 05:57:04 34° 245° (WSW) 06:01:05 436.795
DOVE 4 05 Dec 05:54:08 05:59:00 35° 95° (E) 06:03:43 437.250
Cosmos 2504 05 Dec 05:55:47 06:03:27 32° 68° (ENE) 06:10:45 435.465 / 435.565
BRITE-PL 05 Dec 05:55:50 06:00:58 47° 288° (WNW) 06:06:21 437.365/2234.400
YUBILEINY 05 Dec 06:00:24 06:09:11 65° 79° (E) 06:17:57 435.215
Cosmos 2491 05 Dec 06:27:43 06:36:03 50° 89° (E) 06:44:21 435.465 / 435.565
CANX-2 05 Dec 06:30:44 06:31:59 11° 90° (E) 06:33:15 2200.000
BEESAT 3 05 Dec 06:34:53 06:37:39 18° 316° (NW) 06:40:27 437.485
STRAND 1 05 Dec 06:42:19 06:47:27 75° 257° (WSW) 06:52:37 437.568
LilacSat-2 05 Dec 06:44:04 06:47:41 44° 287° (WNW) 06:51:15 437.200
NOAA 18 05 Dec 06:45:46 06:51:19 73° 103° (ESE) 06:56:49 137.9125
CUTE-I 05 Dec 06:46:01 06:51:20 70° 286° (WNW) 06:56:36 437.470
HORYU 2 05 Dec 06:55:58 06:58:18 14° 298° (WNW) 07:00:38 437.375
SEEDS 05 Dec 06:57:45 06:59:47 13° 91° (E) 07:01:49 437.485
BEESAT 2 05 Dec 07:01:23 07:04:23 20° 315° (NW) 07:07:25 435.950
COMPASS 1 05 Dec 07:10:36 07:12:15 12° 90° (E) 07:13:53 437.405
Cubesat XI-IV 05 Dec 07:11:51 07:16:52 42° 291° (WNW) 07:21:51 437.490
NOAA 15 05 Dec 07:12:45 07:17:34 37° 292° (WNW) 07:22:22 137.62
AIST 1 05 Dec 07:13:27 07:17:49 66° 265° (W) 07:22:10
HO-68 05 Dec 07:14:11 07:20:51 39° 98° (E) 07:27:28 435.675
GOMX 1 05 Dec 07:16:28 07:20:27 21° 296° (WNW) 07:24:29 467.674
CINEMA 3 05 Dec 07:20:35 07:25:24 63° 100° (E) 07:29:58 145.822/145.860
DOVE 4 05 Dec 07:31:57 07:36:31 30° 293° (WNW) 07:41:00 437.250
RS-15 05 Dec 07:33:35 07:45:14 75° 117° (ESE) 07:57:29 29.354- 29.394
AIST 2 05 Dec 07:40:41 07:44:17 30° 114° (ESE) 07:47:56 435.215
CUBEBUG 2 05 Dec 07:46:08 07:49:56 28° 95° (E) 07:53:37 437.445
CUTE 1.7 + AOD 2 05 Dec 07:46:12 07:50:25 72° 101° (E) 07:54:37 437.475
Cosmos 2504 05 Dec 07:48:44 07:57:20 59° 269° (W) 08:05:26 435.465 / 435.565
YUBILEINY 05 Dec 07:58:17 08:05:15 27° 278° (W) 08:12:15 435.215
CANX-2 05 Dec 08:04:03 08:08:13 61° 286° (WNW) 08:12:22 2200.000
AAUSAT CUBESAT 2 05 Dec 08:14:50 08:18:53 51° 99° (E) 08:22:55 437.432
Oscar 11 05 Dec 08:18:39 08:21:59 22° 94° (E) 08:25:18 145.826/435.025
Cosmos 2491 05 Dec 08:25:10 08:33:05 37° 289° (WNW) 08:41:01 435.465 / 435.565
NOAA 18 05 Dec 08:27:55 08:31:21 17° 301° (WNW) 08:34:46 137.9125
PRISM 05 Dec 08:29:24 08:33:28 77° 259° (WSW) 08:37:34 437.425
UWE-3 05 Dec 08:30:27 08:34:43 54° 100° (E) 08:38:50 435.000/436.395/437.385
SEEDS 05 Dec 08:31:43 08:35:46 50° 286° (WNW) 08:39:49 437.485
UNISAT 6 05 Dec 08:43:43 08:47:54 33° 70° (ENE) 08:52:05 437.425
COMPASS 1 05 Dec 08:44:03 08:48:07 55° 286° (WNW) 08:52:10 437.405
CINEMA 3 05 Dec 08:59:13 09:01:56 15° 298° (WNW) 09:04:34 145.822/145.860
HO-68 05 Dec 09:01:54 09:08:33 42° 296° (WNW) 09:15:10 435.675
CUSAT 1 05 Dec 09:02:56 09:05:53 30° 97° (E) 09:08:26 437.405
TIGRISAT 05 Dec 09:13:30 09:18:08 63° 74° (ENE) 09:22:45 435.000
ZACube-1 05 Dec 09:13:49 09:18:05 79° 282° (WNW) 09:22:14 437.345
ANTELSAT 05 Dec 09:14:41 09:19:21 68° 74° (ENE) 09:23:59 437.575/2403.000
HUMSAT D 05 Dec 09:15:32 09:18:10 16° 93° (E) 09:20:47 437.325/437.525
AIST 2 05 Dec 09:19:11 09:22:44 27° 312° (NW) 09:26:20 435.215
FUNcube-1 05 Dec 09:22:08 09:26:21 69° 285° (WNW) 09:30:28 145.935
DELFI C3 05 Dec 09:22:12 09:25:56 38° 98° (E) 09:29:39 145.870
CUBEBUG 2 05 Dec 09:22:47 09:26:28 26° 292° (WNW) 09:30:01 437.445
CUTE 1.7 + AOD 2 05 Dec 09:24:39 09:25:39 11° 298° (WNW) 09:26:39 437.475
NANOSAT C BR1 05 Dec 09:36:17 09:38:00 12° 62° (ENE) 09:39:41 145.865
